Regional Weather Roundup
Issued by NWS

Home | Current Version | Previous Version | Text Only | Print | Product List | Glossary Off
Versions: 1 2 3 4 5 6 7 8 9 10 11 12 13 14 15 16 17 18 19 20 21 22 23 24 25 26 27 28 29 30 31 32 33 34 35 36 37 38 39 40 41 42 43 44 45 46 47 48 49 50

000
ASUS43 KMPX 051401
RWRMN
WEATHER ROUNDUP FOR MINNESOTA
NATIONAL WEATHER SERVICE TWIN CITIES/CHANHASSEN MN
800 AM CST MON DEC 05 2016


NOTE: "FAIR" INDICATES FEW OR NO CLOUDS BELOW 12,000 FEET WITH NO
SIGNIFICANT WEATHER AND/OR OBSTRUCTIONS TO VISIBILITY. N/A MEANS
CURRENT SKY AND/OR WEATHER CONDITIONS ARE NOT AVAILABLE.

MNZ060>063-068>070-051500-
   Twin Cities Metro

CITY           SKY/WX    TMP DP  RH WIND       PRES   REMARKS
TWIN CITIES    MOCLDY    31  27  85 SE9       29.77F WCI  23
ST PAUL        PTCLDY    30  30 100 SE5       29.79F WCI  25
CRYSTAL        PTCLDY    29  25  85 E3        29.75F
BLAINE         PTCLDY    30  30 100 SE3       29.76S
LAKEVILLE      CLOUDY    28  28 100 SE6       29.76F WCI  22
EDEN PRAIRIE   CLOUDY    31  28  89 E6        29.75S WCI  25
SOUTH ST PAUL  CLOUDY    30  29  98 SE3       29.78S
LAKE ELMO      FAIR      30  30 100 CALM      29.79F
$$
MNZ001>005-007-008-013>017-022>024-027-028-051500-
   Northwest Minnesota

CITY           SKY/WX    TMP DP  RH WIND       PRES   REMARKS
BEMIDJI        CLOUDY    27  25  94 SE6       29.73R WCI  20
HALLOCK        CLOUDY    28  27  93 SE5       29.70R WCI  23
ROSEAU         CLOUDY    30  25  80 CALM      29.71R
WARROAD        CLOUDY    28  27  93 W3        29.71S
THIEF RVR FALL CLOUDY    26  24  92 E9        29.71S WCI  17
CROOKSTON      CLOUDY    27  27 100 E7        29.70F FOG     WCI  19
FOSSTON        CLOUDY    25  25 100 E8        29.70F FOG     WCI  16
DETROIT LAKES  CLEAR     25  23  93 SE3       29.68S
MOORHEAD       CLEAR     21  19  93 E5        29.66F WCI  15
PARK RAPIDS    FOG       26  23  88 E6        29.70F VSB 1/4 WCI  19
$$
MNZ006-009>011-018-025>026-051500-
   North Central Minnesota

CITY           SKY/WX    TMP DP  RH WIND       PRES   REMARKS
BAUDETTE       CLOUDY    29  25  85 NW5       29.70R WCI  24
FLAG ISLAND    CLOUDY    28  27  93 W6        29.69S WCI  22
INTL FALLS     CLOUDY    29  25  85 W5        29.72R WCI  24
WASKISH        CLOUDY    28  27  93 CALM      29.72S
BIG FORK       CLOUDY    28  27  93 CALM      29.73R
LONGVILLE      PTCLDY    21  21 100 CALM      29.73R FOG
GRAND RAPIDS   CLOUDY    28  25  88 CALM      29.75S
CRANE LAKE     CLOUDY    28  27  93 CALM      29.75R
COOK           CLOUDY    28  25  86 W6        29.73F WCI  22
$$
MNZ012-019>021-037-051500-
   Northeast Minnesota

CITY           SKY/WX    TMP DP  RH WIND       PRES   REMARKS
DULUTH         CLOUDY    30  26  85 W6        29.75S WCI  24
ELY            CLOUDY    28  27  93 W6        29.73R WCI  22
HIBBING        CLOUDY    27  24  89 CALM      29.74R
EVELETH        CLOUDY    30  27  87 SW7       29.75R WCI  23
DULUTH HARBOR  CLOUDY    36  30  80 SW6       29.80R
TWO HARBORS    PTCLDY    34  28  80 W7        29.75R WCI  28
SILVER BAY     CLOUDY    30  28  93 CALM      29.75R
GRAND MARAIS     N/A     34  29  82 W8        29.76R WCI  27
G MARAIS ARPRT CLOUDY    27  23  86 W5        29.70R WCI  21
$$
MNZ029>031-032-039>041-046>048-054>057-064-051500-
   West Central Minnesota

CITY           SKY/WX    TMP DP  RH WIND       PRES   REMARKS
FERGUS FALLS   CLEAR     27  27 100 E6        29.69F WCI  20
WHEATON        CLEAR    N/A N/A N/A E6        29.64F
MORRIS         CLEAR     28  27  93 SE12      29.63F WCI  18
ALEXANDRIA     CLEAR     26  25  96 E9        29.67F WCI  17
ELBOW LAKE     FAIR      28  26  91 CALM      29.65S
WADENA         CLEAR     19  18  93 E3        29.70R
GLENWOOD       CLEAR     25  25 100 E7        29.67F WCI  17
APPLETON       CLEAR     30  28  93 SE9       29.64S WCI  22
BENSON         CLEAR     30  27  86 SE10      29.65F WCI  21
ORTONVILLE     CLEAR     28  27  93 SE7       29.62S WCI  21
MADISON        PTCLDY    30  30 100 E7        29.63S WCI  23
WILLMAR        FAIR      32  30  93 E12       29.68F WCI  23
$$
MNZ033>034-036-042>043-049>051-058-059-051500-
   Central Minnesota

CITY           SKY/WX    TMP DP  RH WIND       PRES   REMARKS
ST CLOUD       PTCLDY    26  25  96 SE7       29.74R FOG     WCI  18
PAYNESVILLE    PTCLDY    29  29 100 E3        29.71S
AITKIN         CLOUDY    30  25  80 E3        29.73S
PINE RIVER     CLOUDY    27  27 100 CALM      29.77S FOG
BRAINERD       FOG       21  20  96 E3        29.74S VSB 3/4
STAPLES        CLEAR     19  19 100 CALM      29.71S
LONG PRAIRIE   FAIR      25  23  93 CALM      29.70F FOG
LITTLE FALLS   CLEAR     27  23  86 CALM      29.73S
LITCHFIELD     CLOUDY    28  28 100 SE6       29.71S WCI  22
BUFFALO        CLOUDY    29  28  94 E3        29.75F
MAPLE LAKE     CLOUDY    30  30 100 E3        29.74F
$$
MNZ037-044-045-052-053-051500-
   East Central Minnesota

CITY           SKY/WX    TMP DP  RH WIND       PRES   REMARKS
PRINCETON      CLEAR     27  25  93 SE5       29.75R FOG     WCI  21
MORA           FOG       25  23  93 CALM      29.78S VSB 1/4
CAMBRIDGE      CLEAR     28  27  93 SE5       29.75R FOG     WCI  23
RUSH CITY      MOCLDY    27  25  93 CALM      29.77S
MOOSE LAKE     CLOUDY    30  28  93 CALM      29.75S
HINCKLEY       FOG       28  28 100 CALM      29.78S VSB 1/2
CLOQUET        CLOUDY    30  27  86 SW3       29.76R
MCGREGOR       CLOUDY    28  27  93 E3        29.75S
$$
MNZ071>073-080-081-089-090-097-098-051500-
   Southwest Minnesota

CITY           SKY/WX    TMP DP  RH WIND       PRES   REMARKS
MONTEVIDEO     PTCLDY    30  30 100 S9        29.66R WCI  22
GRANITE FALLS  CLOUDY    33  31  95 E9        29.66S WCI  25
CANBY          PTCLDY    30  29  96 CALM      29.63S
MARSHALL       PTCLDY    33  29  85 SE12      29.62F WCI  24
REDWOOD FALLS  CLOUDY    33  30  88 SE13      29.66F WCI  24
OLIVIA         CLOUDY    32  32 100 SE9       29.66F WCI  24
PIPESTONE      CLOUDY    34  30  86 S9        29.59F WCI  26
WINDOM         CLOUDY    36  30  80 SE15      29.65S
WORTHINGTON    CLOUDY    33  30  88 S16       29.63F WCI  23
JACKSON        CLOUDY    34  30  86 SE13G18   29.68S WCI  25
TRACY          CLOUDY    36  32  85 S8        29.62F
SLAYTON        CLOUDY    32  30  92 SE10      29.63F WCI  24
$$
MNZ065>067-074>077-082>085-091>093-051500-
   South Central Minnesota

CITY           SKY/WX    TMP DP  RH WIND       PRES   REMARKS
MANKATO        CLOUDY    33  31  92 SE14      29.74F WCI  23
NEW ULM        CLOUDY    34  30  86 SE12      29.70S WCI  25
ST JAMES       CLOUDY    34  32  93 SE13      29.70F WCI  25
FAIRMONT       CLOUDY    34  31  88 S12       29.72F WCI  25
GLENCOE        MOCLDY    33  33  99 E7        29.72F WCI  27
FARIBAULT      MOCLDY    34  30  86 S3        29.77F
OWATONNA       CLOUDY    34  30  86 SE17      29.76F WCI  23
WASECA         CLOUDY    34  32  93 SE9G16    29.77S WCI  26
ALBERT LEA     CLOUDY    36  34  93 SE12      29.78F FOG
$$
MNZ078>079-086>088-094>096-051500-
   Southeast Minnesota

CITY           SKY/WX    TMP DP  RH WIND       PRES   REMARKS
ROCHESTER      CLOUDY    31  30  96 S12       29.80F FOG     WCI  22
RED WING       PTCLDY    30  28  93 SE9       29.80S WCI  22
STANTON        CLOUDY    34  31  89 S6        29.77S WCI  29
DODGE CENTER   CLOUDY    32  30  93 SE10      29.78S FOG     WCI  24
WINONA         CLOUDY    34  32  93 SE6       29.87R WCI  29
AUSTIN         CLOUDY    30  30 100 S9        29.81  FOG     WCI  22
PRESTON        CLOUDY    29  28  96 S14       29.84S FOG     WCI  19
$$
ABBREVIATIONS USED IN REMARKS
   TC - TEMPERATURES IN CELSIUS
  WCI - WIND CHILL INDEX
   HX - HEAT INDEX
  VSB - VISIBILITY
$$



USA.gov is the U.S. government's official web portal to all federal, state and local government web resources and services.